Weather History for KHFF - December, 2013

Change the Weather History Date:

Sunday, December 8, 2013

  Actual Average Record
Temperature  
Mean Temperature 39 °F -  
Max Temperature 44 °F 57 °F 82 °F (1998)
Min Temperature 34 °F 35 °F 13 °F (2010)
Degree Days  
Heating Degree Days 26    
Moisture  
Dew Point 35 °F    
Average Humidity 95    
Maximum Humidity 100    
Minimum Humidity 65    
Precipitation  
Precipitation 0.18 in - - ()
Sea Level Pressure  
Sea Level Pressure 30.38 in    
Wind  
Wind Speed 8 mph (NE)    
Max Wind Speed 12 mph    
Max Gust Speed 18 mph    
Visibility 6 miles    
Events Rain , Snow    
Averages and records for this station are not official NWS values.
T = Trace of Precipitation, MM = Missing Value Source: NWS Daily Summary

Daily Weather History Graph

Daily Weather History Graph

Search for Another Location

Airport or City:

Trip Planner

Search our weather history database for the weather conditions in past years. The results will help you decide how hot, cold, wet, or windy it might be!

Date:

Astronomy

Dec. 08, 2013 Rise Set
Actual Time 7:13 AM EST 5:06 PM EST
Civil Twilight 6:45 AM EST 5:34 PM EST
Nautical Twilight 6:14 AM EST 6:05 PM EST
Astronomical Twilight 5:43 AM EST 6:36 PM EST
Moon 11:43 AM EST (12/8) 11:41 PM EST (12/8)
Length of Visible Light 10h 48m
Length of Day
9h 52m
Waxing Crescent, 40% of the Moon is Illuminated
Dec 8
Waxing Crescent
Dec 9
First Quarter
Dec 17
Full
Dec 25
Last Quarter
Jan 1
New

Hourly Weather History & Observations

Time (EST) Temp. Windchill Dew Point Humidity Pressure Visibility Wind Dir Wind Speed Gust Speed Precip Events Conditions
12:56 AM 44.1 °F 39.0 °F 34.9 °F 70% 30.43 in 12.0 mi NNE 9.2 mph - N/A   Overcast
1:56 AM 43.5 °F 38.3 °F 33.3 °F 67% 30.40 in 12.0 mi ENE 9.2 mph - N/A   Overcast
2:56 AM 43.0 °F 38.2 °F 32.0 °F 65% 30.41 in 12.0 mi NE 8.1 mph - N/A   Overcast
3:56 AM 42.3 °F 36.3 °F 32.2 °F 67% 30.40 in 12.0 mi NE 10.4 mph - N/A   Overcast
4:56 AM 41.5 °F 36.4 °F 33.3 °F 72% 30.40 in 12.0 mi NE 8.1 mph - N/A   Overcast
5:56 AM 40.1 °F 34.1 °F 33.8 °F 78% 30.42 in 12.0 mi NE 9.2 mph - N/A   Overcast
6:09 AM 39.2 °F 33.6 °F 33.8 °F 81% 30.40 in 12.0 mi ENE 8.1 mph 18.4 mph N/A Rain Light Rain
6:56 AM 38.3 °F 31.4 °F 34.9 °F 87% 30.43 in 10.0 mi NE 10.4 mph - N/A Rain Light Rain Showers
7:07 AM 37.4 °F 30.8 °F 35.6 °F 93% 30.41 in 11.0 mi NE 9.2 mph - N/A   Overcast
7:33 AM 37.4 °F 31.4 °F 35.6 °F 93% 30.42 in 11.0 mi NNE 8.1 mph - N/A   Overcast
7:49 AM 37.4 °F 29.8 °F 35.6 °F 93% 30.42 in 6.0 mi NE 11.5 mph - N/A Rain Light Rain Showers
7:56 AM 37.6 °F 31.0 °F 35.1 °F 91% 30.45 in 4.0 mi NE 9.2 mph 17.3 mph N/A Rain Light Rain Showers
8:06 AM 37.4 °F 30.3 °F 35.6 °F 93% 30.42 in 4.0 mi NE 10.4 mph 17.3 mph N/A Rain Light Rain Showers
8:22 AM 37.4 °F 31.4 °F 35.6 °F 93% 30.43 in 2.8 mi NNE 8.1 mph - N/A Rain Light Rain Showers
8:34 AM 37.4 °F 31.4 °F 35.6 °F 93% 30.42 in 2.5 mi NE 8.1 mph - N/A Rain Light Rain Showers
8:49 AM 37.4 °F 30.3 °F 35.6 °F 93% 30.42 in 2.5 mi NNE 10.4 mph - N/A   Light Drizzle
8:56 AM 36.9 °F 31.4 °F 36.3 °F 98% 30.44 in 2.5 mi NNE 6.9 mph - N/A   Light Drizzle
9:06 AM 37.4 °F 30.8 °F 35.6 °F 93% 30.43 in 3.0 mi NE 9.2 mph - N/A   Drizzle
9:16 AM 37.4 °F 29.8 °F 35.6 °F 93% 30.43 in 2.5 mi NNE 11.5 mph - N/A Rain Light Rain
9:42 AM 37.4 °F 31.4 °F 35.6 °F 93% 30.43 in 3.0 mi NE 8.1 mph - N/A Rain Light Rain
9:48 AM 35.6 °F 29.9 °F 35.6 °F 100% 30.44 in 2.8 mi NE 6.9 mph - N/A Rain Light Rain
9:53 AM 37.4 °F 32.8 °F 35.6 °F 93% 30.44 in 2.2 mi NE 5.8 mph - N/A Rain Rain
9:54 AM 37.4 °F 33.8 °F 35.6 °F 93% 30.44 in 2.2 mi NNE 4.6 mph - N/A Rain Rain
9:57 AM 36.5 °F 31.8 °F 36.0 °F 98% 30.46 in 1.9 mi NNE 5.8 mph - 0.04 in Rain Rain
10:02 AM 37.4 °F 32.8 °F 35.6 °F 93% 30.43 in 1.6 mi ENE 5.8 mph - N/A Rain , Snow Light Rain
10:07 AM 37.4 °F 32.1 °F 35.6 °F 93% 30.44 in 1.4 mi NNE 6.9 mph - N/A Rain , Snow Rain
10:18 AM 35.6 °F 28.6 °F 35.6 °F 100% 30.44 in 2.0 mi NE 9.2 mph - N/A Rain , Snow Light Rain
10:23 AM 37.4 °F 31.4 °F 35.6 °F 93% 30.44 in 3.0 mi NE 8.1 mph - N/A Rain , Snow Light Rain
10:39 AM 37.4 °F 31.4 °F 35.6 °F 93% 30.43 in 6.0 mi ENE 8.1 mph - N/A Rain Light Rain
10:54 AM 37.4 °F 32.8 °F 35.6 °F 93% 30.42 in 8.0 mi NE 5.8 mph - N/A   Light Drizzle
10:56 AM 36.7 °F 32.0 °F 36.1 °F 98% 30.44 in 8.0 mi NE 5.8 mph - 0.09 in   Light Drizzle
11:06 AM 37.4 °F 30.8 °F 35.6 °F 93% 30.39 in 10.0 mi East 9.2 mph - N/A   Light Drizzle
11:21 AM 37.4 °F 31.4 °F 35.6 °F 93% 30.39 in 12.0 mi ENE 8.1 mph 16.1 mph N/A   Mostly Cloudy
11:27 AM 37.4 °F 30.8 °F 35.6 °F 93% 30.40 in 12.0 mi ENE 9.2 mph 16.1 mph N/A   Mostly Cloudy
11:37 AM 37.4 °F 30.3 °F 35.6 °F 93% 30.39 in 12.0 mi ENE 10.4 mph - N/A   Mostly Cloudy
11:54 AM 37.4 °F 29.8 °F 35.6 °F 93% 30.39 in 12.0 mi NNE 11.5 mph - N/A   Overcast
11:56 AM 36.7 °F 28.9 °F 35.4 °F 95% 30.41 in 12.0 mi NNE 11.5 mph - N/A   Overcast
12:08 PM 35.6 °F 28.6 °F 35.6 °F 100% 30.39 in 12.0 mi NNE 9.2 mph - N/A Rain Light Rain Showers
12:24 PM 35.6 °F 27.5 °F 35.6 °F 100% 30.39 in 5.0 mi NNE 11.5 mph - N/A Rain Rain
12:39 PM 35.6 °F 29.2 °F 35.6 °F 100% 30.38 in 2.8 mi NNE 8.1 mph - N/A Rain Light Rain
12:49 PM 35.6 °F 28.0 °F 35.6 °F 100% 30.38 in 2.5 mi NNE 10.4 mph - N/A Rain Light Rain
12:54 PM 35.6 °F 28.6 °F 35.6 °F 100% 30.37 in 3.0 mi NE 9.2 mph - N/A Rain Light Rain
12:56 PM 35.8 °F 28.8 °F 35.2 °F 98% 30.39 in 3.0 mi NE 9.2 mph - 0.03 in Rain Light Rain
1:48 PM 35.6 °F 30.7 °F 35.6 °F 100% 30.37 in 2.8 mi North 5.8 mph - N/A   Drizzle
1:53 PM 37.4 °F 30.8 °F 35.6 °F 93% 30.37 in 2.8 mi North 9.2 mph - N/A   Drizzle
1:56 PM 36.5 °F 29.2 °F 36.0 °F 98% 30.39 in 2.8 mi North 10.4 mph - 0.01 in   Drizzle
2:01 PM 37.4 °F 30.3 °F 35.6 °F 93% 30.37 in 4.0 mi NNE 10.4 mph - N/A   Light Drizzle
2:22 PM 35.6 °F 29.2 °F 35.6 °F 100% 30.36 in 5.0 mi NNE 8.1 mph - N/A   Light Drizzle
2:27 PM 37.4 °F 31.4 °F 35.6 °F 93% 30.36 in 8.0 mi NNE 8.1 mph - N/A   Overcast
2:53 PM 35.6 °F 28.6 °F 35.6 °F 100% 30.35 in 12.0 mi NNE 9.2 mph - N/A   Overcast
2:56 PM 36.0 °F 29.0 °F 35.2 °F 97% 30.37 in 12.0 mi NNE 9.2 mph - N/A   Overcast
3:16 PM 35.6 °F 29.9 °F 35.6 °F 100% 30.35 in 12.0 mi NNE 6.9 mph - N/A   Light Drizzle
3:18 PM 35.6 °F 29.9 °F 35.6 °F 100% 30.35 in 9.0 mi NNE 6.9 mph - N/A   Light Drizzle
3:47 PM 35.6 °F 29.2 °F 35.6 °F 100% 30.34 in 8.0 mi NNE 8.1 mph - N/A   Overcast
3:56 PM 35.4 °F 27.8 °F 34.7 °F 97% 30.36 in 9.0 mi NNE 10.4 mph - N/A   Overcast
4:01 PM 35.6 °F 29.9 °F 35.6 °F 100% 30.34 in 9.0 mi NNE 6.9 mph - N/A   Overcast
4:37 PM 35.6 °F 29.2 °F 35.6 °F 100% 30.34 in 4.0 mi NE 8.1 mph - N/A   Overcast
4:56 PM 35.2 °F 28.8 °F 34.9 °F 99% 30.37 in 4.0 mi NNE 8.1 mph - N/A   Overcast
5:01 PM 35.6 °F 29.9 °F 35.6 °F 100% 30.35 in 3.0 mi NNE 6.9 mph - N/A   Overcast
5:37 PM 35.6 °F 28.6 °F 35.6 °F 100% 30.35 in 4.0 mi NNE 9.2 mph - N/A   Overcast
5:43 PM 35.6 °F 29.2 °F 33.8 °F 93% 30.35 in 4.0 mi NE 8.1 mph - N/A   Overcast
5:56 PM 34.9 °F 29.0 °F 34.7 °F 99% 30.37 in 4.0 mi NNE 6.9 mph - N/A   Overcast
6:11 PM 35.6 °F 31.7 °F 35.6 °F 100% 30.35 in 2.8 mi NNE 4.6 mph - N/A   Overcast
6:27 PM 35.6 °F 30.7 °F 35.6 °F 100% 30.35 in 3.0 mi NNE 5.8 mph - N/A   Overcast
6:32 PM 35.6 °F 29.2 °F 35.6 °F 100% 30.35 in 2.8 mi NNE 8.1 mph - N/A   Overcast
6:37 PM 35.6 °F 29.9 °F 35.6 °F 100% 30.34 in 3.0 mi NE 6.9 mph - N/A   Overcast
6:39 PM 35.6 °F 30.7 °F 35.6 °F 100% 30.35 in 2.8 mi NE 5.8 mph - N/A   Light Drizzle
6:56 PM 35.1 °F 29.3 °F 34.9 °F 99% 30.36 in 2.8 mi NE 6.9 mph - N/A   Light Drizzle
7:01 PM 35.6 °F 29.9 °F 35.6 °F 100% 30.34 in 3.0 mi NE 6.9 mph - N/A Rain Light Rain
7:21 PM 35.6 °F 30.7 °F 35.6 °F 100% 30.34 in 4.0 mi ENE 5.8 mph - N/A   Overcast
7:56 PM 35.2 °F 30.3 °F 35.1 °F 99% 30.36 in 6.0 mi NNE 5.8 mph - N/A   Overcast
8:00 PM 35.6 °F 29.9 °F 35.6 °F 100% 30.34 in 5.0 mi NNE 6.9 mph - N/A Rain Light Rain Showers
8:56 PM 35.4 °F 30.5 °F 35.2 °F 99% 30.36 in 5.0 mi NE 5.8 mph - N/A   Light Drizzle
9:12 PM 35.6 °F 32.8 °F 35.6 °F 100% 30.34 in 7.0 mi NNE 3.5 mph - N/A   Overcast
9:56 PM 35.8 °F 31.9 °F 35.4 °F 99% 30.36 in 3.0 mi NNE 4.6 mph - N/A   Overcast
10:01 PM 35.6 °F 31.7 °F 35.6 °F 100% 30.34 in 2.8 mi NNE 4.6 mph - N/A   Overcast
10:04 PM 35.6 °F 32.8 °F 35.6 °F 100% 30.33 in 2.8 mi NNE 3.5 mph - N/A Rain Light Rain
10:29 PM 35.6 °F 32.8 °F 35.6 °F 100% 30.33 in 2.8 mi North 3.5 mph - N/A   Overcast
10:40 PM 35.6 °F 32.8 °F 35.6 °F 100% 30.32 in 3.0 mi NNE 3.5 mph - N/A   Overcast
10:56 PM 35.8 °F 30.9 °F 35.8 °F 100% 30.34 in 4.0 mi North 5.8 mph - N/A   Overcast
11:06 PM 35.6 °F 30.7 °F 35.6 °F 100% 30.32 in 2.8 mi North 5.8 mph - N/A   Overcast
11:07 PM 35.6 °F 30.7 °F 35.6 °F 100% 30.32 in 2.8 mi North 5.8 mph - N/A Rain Light Rain Showers
11:22 PM 35.6 °F 31.7 °F 35.6 °F 100% 30.33 in 3.0 mi NNW 4.6 mph - N/A Rain Light Rain
11:56 PM 35.6 °F 31.7 °F 35.4 °F 99% 30.31 in 5.0 mi NE 4.6 mph - 0.01 in Rain Light Rain Showers